Regional Weather Roundup
Issued by NWS Binghamton, NY

Home | Current Version | Previous Version | Text Only | Print | Product List | Glossary On
Versions: 1 2 3 4 5 6 7 8 9 10 11 12 13 14 15 16 17 18 19 20 21 22 23 24 25 26 27 28 29 30 31 32 33 34 35 36 37 38 39 40 41 42 43 44 45 46 47 48 49 50
000
ASUS41 KBGM 210010
RWRBGM

REGIONAL WEATHER ROUNDUP
NATIONAL WEATHER SERVICE BINGHAMTON NY
700 PM EST FRI JAN 20 2017

Note: "fair" indicates few or no clouds below 12,000 feet with no
significant weather and/or obstructions to visibility.

* = Station(s) that does not report precipitation, such as rain,
snow, etc, also no thunder or fog.

NYZ009-015>018-022>025-036-037-044>046-055>057-062-210100
...Central New York...

CITY           SKY/WX    TMP DP  RH WIND       PRES   REMARKS
Binghamton     CLOUDY    36  35  96 S8        29.79R WCI  30
Cortland       DRIZZLE   39  37  93 S3        29.79S
Dansville      CLOUDY    43  40  89 SE6       29.75R
Elmira         CLOUDY    39  36  89 CALM      29.79R
Seneca Falls   CLOUDY    43  39  87 S14       29.79R
Ithaca         CLOUDY    39  36  89 S8        29.80R WCI  33
Hamilton       CLOUDY    37  34  87 S8        29.81S WCI  31
Monticello     CLOUDY    34  34 100 E3        29.87S
Norwich        CLOUDY    36  36 100 CALM      29.82S
Oneonta        PTCLDY    36  36 100 CALM      29.80S
Penn Yan       CLOUDY    41  35  79 S6        29.77R
Rome           CLOUDY    36  34  92 SE9       29.86R WCI  29
Sidney         CLOUDY    37  37 100 NW3       29.82S
Syracuse       CLOUDY    38  35  89 E8        29.80S WCI  32
$$

PAZ038>040-043-044-047-048-072-210100
...Northeast Pennsylvania...

CITY           SKY/WX    TMP DP  RH WIND       PRES   REMARKS
Hazleton       CLOUDY    36  36 100 CALM      29.87R FOG
Scranton       CLOUDY    39  38  96 SW3       29.85R
$$
&&
KEY
WCI = Wind Chill Index
VSB = Visibility
HX  = Heat Index
$$



USA.gov is the U.S. government's official web portal to all federal, state and local government web resources and services.